Skip Page Navigation
NASA JPL Caltech
NASA Logo - Jet Propulsion Laboratory + View the NASA Portal
+ Center for Near-Earth Object Studies
JPL Home Earth Solar System Stars & Galaxies Technology
JPL Solar System Dynamics
BODIES ORBITS EPHEMERIDES TOOLS PHYSICAL DATA DISCOVERY FAQ SITE MAP
IMPORTANT: The SSD Announcement email list is now available. Major changes are coming in the near future, including possible hostname and/or URL changes. To be notified of such changes, subscribe to this email list.

Please visit this page for more details.


JPL Small-Body Database Browser
Search: [ help ]  
193321 (2000 SN334)
Classification: Main-belt Asteroid          SPK-ID: 2193321
Ephemeris | Orbit Diagram | Orbital Elements | Mission Design | Physical Parameters | Discovery Circumstances ]

[ show orbit diagram ]
Orbital Elements at Epoch 2458600.5 (2019-Apr-27.0) TDB
Reference: JPL 18 (heliocentric ecliptic J2000)
 Element Value Uncertainty (1-sigma)   Units 
e .1661668272932151 3.8746e-08  
a 2.430343642767431 1.5166e-08 au
q 2.026501150416532 9.4982e-08 au
i 4.274588237142273 5.778e-06 deg
node 232.3211585187176 9.5883e-05 deg
peri 33.49900008190414 9.9308e-05 deg
M 47.70365513621273 2.5884e-05 deg
tp 2458417.121206321573
(2018-Oct-25.62120632)
9.9267e-05 TDB
period 1383.884851920279
3.79
1.2954e-05
3.547e-08
d
yr
n .2601372502202506 2.435e-09 deg/d
Q 2.83418613511833 1.7686e-08 au
  Orbit Determination Parameters
   # obs. used (total)      429  
   data-arc span      6480 days (17.74 yr)  
   first obs. used      2000-09-08  
   last obs. used      2018-06-06  
   planetary ephem.      DE431  
   SB-pert. ephem.      SB431-N16  
   condition code      0  
   norm. resid. RMS      .57608  
   source      ORB  
   producer      Otto Matic  
   solution date      2019-Jul-13 10:06:33  

Additional Information
 Earth MOID = 1.01199 au 
 Jupiter MOID = 2.24441 au 
 T_jup = 3.485 
[ show covariance matrix ]

Ephemeris | Orbit Diagram | Orbital Elements | Mission Design | Physical Parameters | Discovery Circumstances ]

Physical Parameter Table
Parameter Symbol Value Units Sigma Reference Notes
absolute magnitude H 16.1   n/a MPO436954  

193321 (2000 SN334)          Discovered 2000-Sep-26 by Spacewatch at Kitt Peak
Reference: 20081113/Numbers.arcLast Updated: 2008-11-17
Ephemeris | Orbit Diagram | Orbital Elements | Mission Design | Physical Parameters | Discovery Circumstances ]
ABOUT SSD CREDITS/AWARDS PRIVACY/COPYRIGHT GLOSSARY LINKS
FirstGov 2019-Oct-20 20:29 UT
(server date/time)  
NASA Home Page
Site Manager:   Ryan S. Park
Webmaster  Alan B. Chamberlin